When you browse on this site, cookies collect data to enhance your experience and personalize the content and advertising you see.
Visit our Privacy Policy to learn more. By continuing to use the site, you agree to this use of cookies and data.
  • en France
  • Liste des pays
  • À 7 jours
  • Température de l'eau
  • Carte satellitaire
  • Carte météo
  • Widgets météo
  • user-avatar
    Se connecter

    Météo par heure à Abondant

    Ce jour, 23 Avril, Mardi

    Heure Température Précipitation Vent Pression Humidité
    00:00 +14°C° 0 mm 1 m/s 736 mmHg 65%
    01:00 +13°C° 0 mm 1 m/s 736 mmHg 66%
    02:00 +13°C° 0 mm 1 m/s 736 mmHg 67%
    03:00 +13°C° 0 mm 1 m/s 735 mmHg 68%
    04:00 +13°C° 0 mm 1 m/s 735 mmHg 71%
    05:00 +13°C° 0 mm 1 m/s 735 mmHg 73%
    06:00 +14°C° 0 mm 1 m/s 735 mmHg 75%
    07:00 +16°C° 0 mm 1 m/s 735 mmHg 72%
    08:00 +17°C° 0 mm 2 m/s 735 mmHg 69%
    09:00 +19°C° 0 mm 2 m/s 735 mmHg 66%
    10:00 +20°C° 0 mm 2 m/s 735 mmHg 62%
    11:00 +21°C° 0 mm 2 m/s 735 mmHg 59%
    12:00 +23°C° 0 mm 2 m/s 734 mmHg 56%
    13:00 +23°C° 0.1 mm 2 m/s 734 mmHg 58%
    14:00 +22°C° 0.1 mm 1 m/s 734 mmHg 61%
    15:00 +22°C° 0.1 mm 1 m/s 733 mmHg 63%
    16:00 +21°C° 0.1 mm 1 m/s 733 mmHg 69%
    17:00 +20°C° 0.1 mm 1 m/s 733 mmHg 75%
    18:00 +19°C° 0.1 mm 1 m/s 733 mmHg 81%
    19:00 +18°C° 0.4 mm 1 m/s 733 mmHg 83%
    20:00 +16°C° 0.4 mm 1 m/s 733 mmHg 86%
    21:00 +15°C° 0.4 mm 2 m/s 733 mmHg 88%
    22:00 +14°C° 0 mm 2 m/s 733 mmHg 90%
    23:00 +14°C° 0 mm 2 m/s 733 mmHg 91%

    Demain, 24 Avril, Mercredi

    Heure Température Précipitation Vent Pression Humidité
    00:00 +12°C° 0 mm 3 m/s 733 mmHg 93%
    01:00 +12°C° 0.1 mm 3 m/s 733 mmHg 94%
    02:00 +12°C° 0.1 mm 3 m/s 732 mmHg 94%
    03:00 +11°C° 0.1 mm 4 m/s 732 mmHg 95%
    04:00 +12°C° 0 mm 5 m/s 733 mmHg 94%
    05:00 +11°C° 0 mm 6 m/s 733 mmHg 93%
    06:00 +11°C° 0 mm 7 m/s 733 mmHg 92%
    07:00 +10°C° 0 mm 7 m/s 734 mmHg 89%
    08:00 +10°C° 0 mm 7 m/s 734 mmHg 86%
    09:00 +10°C° 0 mm 7 m/s 735 mmHg 84%
    10:00 +10°C° 0 mm 6 m/s 735 mmHg 82%
    11:00 +12°C° 0 mm 5 m/s 736 mmHg 79%
    12:00 +12°C° 0 mm 5 m/s 736 mmHg 77%
    13:00 +12°C° 0.4 mm 5 m/s 736 mmHg 81%
    14:00 +10°C° 0.4 mm 5 m/s 736 mmHg 84%
    15:00 +10°C° 0.4 mm 6 m/s 736 mmHg 87%
    16:00 +10°C° 0.2 mm 6 m/s 737 mmHg 87%
    17:00 +10°C° 0.2 mm 6 m/s 737 mmHg 88%
    18:00 +9°C° 0.2 mm 6 m/s 737 mmHg 88%
    19:00 +8°C° 0 mm 5 m/s 737 mmHg 89%
    20:00 +7°C° 0 mm 4 m/s 737 mmHg 91%
    21:00 +7°C° 0 mm 4 m/s 738 mmHg 92%
    22:00 +7°C° 0 mm 4 m/s 737 mmHg 89%
    23:00 +8°C° 0 mm 5 m/s 737 mmHg 86%

    Après-demain, 25 Avril, Jeudi

    Heure Température Précipitation Vent Pression Humidité
    00:00 +9°C° 0 mm 6 m/s 737 mmHg 83%
    01:00 +9°C° 0.7 mm 6 m/s 737 mmHg 86%
    02:00 +9°C° 0.7 mm 6 m/s 737 mmHg 88%
    03:00 +9°C° 0.7 mm 7 m/s 737 mmHg 91%
    04:00 +8°C° 0.6 mm 6 m/s 737 mmHg 91%
    05:00 +8°C° 0.6 mm 6 m/s 738 mmHg 92%
    06:00 +8°C° 0.6 mm 5 m/s 738 mmHg 92%
    07:00 +9°C° 0.1 mm 5 m/s 739 mmHg 89%
    08:00 +9°C° 0.1 mm 6 m/s 739 mmHg 85%
    09:00 +10°C° 0.1 mm 6 m/s 740 mmHg 82%
    10:00 +10°C° 0.8 mm 6 m/s 740 mmHg 83%
    11:00 +9°C° 0.8 mm 6 m/s 741 mmHg 85%
    12:00 +9°C° 0.8 mm 6 m/s 741 mmHg 86%
    13:00 +10°C° 0.2 mm 6 m/s 741 mmHg 81%
    14:00 +11°C° 0.2 mm 6 m/s 742 mmHg 76%
    15:00 +11°C° 0.2 mm 7 m/s 742 mmHg 71%
    16:00 +11°C° 0.3 mm 6 m/s 742 mmHg 75%
    17:00 +10°C° 0.3 mm 5 m/s 742 mmHg 78%
    18:00 +10°C° 0.3 mm 4 m/s 742 mmHg 82%
    19:00 +8°C° 0 mm 4 m/s 743 mmHg 83%
    20:00 +8°C° 0 mm 5 m/s 744 mmHg 83%
    21:00 +7°C° 0 mm 5 m/s 744 mmHg 84%
    22:00 +6°C° 0 mm 5 m/s 744 mmHg 85%
    23:00 +6°C° 0 mm 5 m/s 744 mmHg 86%

    26 Avril, Vendredi

    Heure Température Précipitation Vent Pression Humidité
    00:00 +6°C° 0 mm 5 m/s 744 mmHg 87%
    01:00 +5°C° 0 mm 6 m/s 744 mmHg 86%
    02:00 +5°C° 0 mm 6 m/s 744 mmHg 85%
    03:00 +5°C° 0 mm 7 m/s 744 mmHg 85%
    04:00 +5°C° 0 mm 8 m/s 744 mmHg 84%
    05:00 +6°C° 0 mm 8 m/s 743 mmHg 82%
    06:00 +6°C° 0 mm 9 m/s 743 mmHg 81%
    07:00 +7°C° 0.1 mm 8 m/s 743 mmHg 82%
    08:00 +7°C° 0.1 mm 8 m/s 744 mmHg 83%
    09:00 +9°C° 0.1 mm 7 m/s 744 mmHg 84%
    10:00 +10°C° 0.1 mm 7 m/s 744 mmHg 77%
    11:00 +12°C° 0.1 mm 7 m/s 745 mmHg 70%
    12:00 +14°C° 0.1 mm 7 m/s 745 mmHg 62%
    13:00 +14°C° 0.2 mm 7 m/s 745 mmHg 66%
    14:00 +14°C° 0.2 mm 7 m/s 746 mmHg 69%
    15:00 +14°C° 0.2 mm 7 m/s 746 mmHg 73%
    16:00 +12°C° 0.5 mm 7 m/s 747 mmHg 77%
    17:00 +11°C° 0.5 mm 6 m/s 747 mmHg 82%
    18:00 +10°C° 0.5 mm 6 m/s 748 mmHg 87%
    19:00 +9°C° 0.1 mm 6 m/s 749 mmHg 88%
    20:00 +8°C° 0.1 mm 6 m/s 750 mmHg 90%
    21:00 +7°C° 0.1 mm 6 m/s 750 mmHg 91%
    22:00 +6°C° 0 mm 5 m/s 751 mmHg 91%
    23:00 +5°C° 0 mm 5 m/s 751 mmHg 91%

    27 Avril, Samedi

    Heure Température Précipitation Vent Pression Humidité
    00:00 +3°C° 0 mm 5 m/s 751 mmHg 91%
    01:00 +3°C° 0 mm 5 m/s 751 mmHg 91%
    02:00 +3°C° 0 mm 5 m/s 751 mmHg 91%
    03:00 +3°C° 0 mm 5 m/s 751 mmHg 91%
    04:00 +4°C° 0.1 mm 6 m/s 751 mmHg 91%
    05:00 +5°C° 0.1 mm 6 m/s 750 mmHg 91%
    06:00 +6°C° 0.1 mm 7 m/s 750 mmHg 91%
    07:00 +8°C° 0.4 mm 7 m/s 750 mmHg 89%
    08:00 +9°C° 0.4 mm 8 m/s 749 mmHg 87%
    09:00 +8°C° 0.4 mm 9 m/s 749 mmHg 84%
    10:00 +10°C° 0.2 mm 9 m/s 749 mmHg 84%
    11:00 +10°C° 0.2 mm 8 m/s 750 mmHg 84%
    12:00 +10°C° 0.2 mm 8 m/s 750 mmHg 84%
    13:00 +9°C° 0.1 mm 8 m/s 751 mmHg 83%
    14:00 +9°C° 0.1 mm 8 m/s 751 mmHg 83%
    15:00 +7°C° 0.1 mm 8 m/s 752 mmHg 82%
    16:00 +9°C° 0.1 mm 7 m/s 753 mmHg 81%
    17:00 +9°C° 0.1 mm 7 m/s 754 mmHg 80%
    18:00 +9°C° 0.1 mm 6 m/s 754 mmHg 79%
    19:00 +8°C° 0 mm 5 m/s 755 mmHg 82%
    20:00 +6°C° 0 mm 5 m/s 756 mmHg 85%
    21:00 +5°C° 0 mm 4 m/s 757 mmHg 88%
    22:00 +5°C° 0 mm 4 m/s 757 mmHg 90%
    23:00 +4°C° 0 mm 4 m/s 757 mmHg 91%

    28 Avril, Dimanche

    Heure Température Précipitation Vent Pression Humidité
    00:00 +4°C° 0 mm 4 m/s 757 mmHg 93%
    01:00 +4°C° 0 mm 3 m/s 757 mmHg 93%
    02:00 +3°C° 0 mm 3 m/s 757 mmHg 94%
    03:00 +3°C° 0 mm 3 m/s 758 mmHg 94%
    04:00 +3°C° 0 mm 3 m/s 758 mmHg 93%
    05:00 +5°C° 0 mm 2 m/s 758 mmHg 92%
    06:00 +5°C° 0 mm 2 m/s 758 mmHg 90%
    07:00 +7°C° 0 mm 2 m/s 758 mmHg 84%
    08:00 +8°C° 0 mm 2 m/s 757 mmHg 79%
    09:00 +10°C° 0 mm 2 m/s 757 mmHg 73%
    10:00 +10°C° 0 mm 2 m/s 757 mmHg 70%
    11:00 +12°C° 0 mm 2 m/s 757 mmHg 67%
    12:00 +13°C° 0 mm 2 m/s 757 mmHg 63%
    13:00 +14°C° 0 mm 2 m/s 756 mmHg 63%
    14:00 +14°C° 0 mm 2 m/s 756 mmHg 62%
    15:00 +15°C° 0 mm 2 m/s 755 mmHg 61%
    16:00 +15°C° 0 mm 1 m/s 755 mmHg 66%
    17:00 +14°C° 0 mm 1 m/s 754 mmHg 71%
    18:00 +13°C° 0 mm 0 m/s 754 mmHg 77%
    19:00 +13°C° 0 mm 1 m/s 754 mmHg 77%
    20:00 +13°C° 0 mm 2 m/s 754 mmHg 77%
    21:00 +12°C° 0 mm 2 m/s 753 mmHg 77%
    22:00 +10°C° 0 mm 3 m/s 753 mmHg 81%
    23:00 +9°C° 0 mm 3 m/s 752 mmHg 86%
    Voir plus